Miscellaneous Local Product
Issued by NWS Hastings, NE

Home | Current Version | Previous Version | Text Only | Print | Product List | Glossary Off
Versions: 1 2 3 4 5 6 7 8 9 10 11 12 13 14 15 16 17 18 19 20 21 22 23 24 25 26 27 28 29 30 31 32 33 34 35 36 37 38 39 40 41 42 43 44 45 46 47 48 49 50

777
AXUS43 KGID 032102
MISGRI

GID CWA HOURLY WEATHER ROUNDUP
NATIONAL WEATHER SERVICE HASTINGS NE
300 PM CST SAT DEC 03 2016

NOTE: "FAIR" INDICATES FEW OR NO CLOUDS BELOW 12,000 FEET WITH NO
SIGNIFICANT WEATHER AND/OR OBSTRUCTIONS TO VISIBILITY.

...SOUTH CENTRAL NEBRASKA...

CITY           SKY/WX    TMP DP  RH WIND       PRES   REMARKS
GRAND ISLAND   LGT SNOW  33  33 100 S8        30.11F FOG     WCI  26
HASTINGS       LGT SNOW  33  32  96 SE8       30.11F FOG     WCI  26
KEARNEY        CLOUDY    34  30  86 S8        30.08F WCI  27
ORD            CLOUDY    37  31  78 S18       30.04F WCI  27
YORK           LGT SNOW  32  32 100 S6        30.13F VSB 1   WCI  26
AURORA         LGT SNOW  33  33 100 S7        30.11F WCI  26
LEXINGTON      CLOUDY    37  32  82 S16       30.05F WCI  27
HOLDREGE       CLOUDY    33  32  97 S7        30.07F FOG     WCI  26
HEBRON         LGT SNOW  32  32  99 E3        30.14F VSB 1

...NEBRASKA PANHANDLE...

CITY           SKY/WX    TMP DP  RH WIND       PRES   REMARKS
CHADRON        CLOUDY    41  12  30 W15       29.92S
ALLIANCE       CLOUDY    42  10  27 NW16G25   29.91S
SCOTTSBLUFF    SUNNY     44  11  26 W18G25    29.93F
SIDNEY         SUNNY     42  10  27 NW18      29.94F

...WESTERN AND NORTH CENTRAL NEBRASKA...

CITY           SKY/WX    TMP DP  RH WIND       PRES   REMARKS
VALENTINE      SUNNY     47  11  23 SW15G26   29.90F
AINSWORTH      SUNNY     47  21  35 SW22      29.91F
ONEILL         MOSUNNY   41  32  72 S20G31    30.01F
BROKEN BOW     MOSUNNY   40  31  70 S21       30.01F WCI  30
IMPERIAL       SUNNY     45  18  34 SW12      29.97F
NORTH PLATTE   SUNNY     45  26  47 S16G25    29.98F
MCCOOK         CLOUDY    38  32  79 S13       30.03F WCI  30

...EASTERN NEBRASKA...

CITY           SKY/WX    TMP DP  RH WIND       PRES   REMARKS
NORFOLK        LGT SNOW  34  32  92 S9        30.11F FOG     WCI  27
SO SIOUX CITY  LGT SNOW  35  33  92 SE9       30.18F VSB 1   WCI  28
TEKAMAH        SNOW      32  31  96 SE8       30.20F VSB 1/2 WCI  25
COLUMBUS       CLOUDY    34  30  86 SE6       30.14F WCI  29
ALBION         CLOUDY    34  32  94 S9        30.10F FOG     WCI  27
OMAHA EPPLEY   LGT SNOW  33  30  88 SE3       30.21F VSB 3/4
MILLARD        LGT SNOW  33  32  95 CALM      30.20F
LINCOLN        LGT SNOW  33  32  96 SE6       30.19S VSB 1   WCI  28
NEBRASKA CITY  SNOW      32  32  99 NE6       30.19F VSB 1/2 WCI  27
BEATRICE       LGT SNOW  33  33  99 NE5       30.16F VSB 1   WCI  29
FALLS CITY     CLOUDY    38  33  82 NE3       30.18F

...NORTHERN KANSAS...

CITY           SKY/WX    TMP DP  RH WIND       PRES   REMARKS
GOODLAND       MOSUNNY   39  28  64 S9        29.97F WCI  33
HILL CITY      CLOUDY    33  32  96 SE5       30.07F FOG     WCI  29
NORTON         LGT SNOW  34  30  86 E5        30.05F WCI  30
PHILLIPSBURG   LGT SNOW  34  34 100 E5        30.09F WCI  30
SMITH CENTER   LGT SNOW  30  30 100 E5        30.10F WCI  25
BELOIT         CLOUDY    32  30  93 CALM      30.11F
HAYS           LGT RAIN  33  32  96 E3        30.08F FOG
RUSSELL        CLOUDY    34  33  96 E7        30.07F FOG     WCI  28
CONCORDIA      LGT RAIN  35  35 100 E5        30.12F FOG     WCI  31
SALINA         LGT RAIN  40  37  89 E6        30.12F
TOPEKA         CLOUDY    48  31  51 E7        30.15F



USA.gov is the U.S. government's official web portal to all federal, state and local government web resources and services.